Tracking 26940 objects as of 28-Jan-2023
HD Live streaming from Space Station
objects crossing your sky now

ZY 3

Track ZY 3 now!
10-day predictions
ZY 3 is classified as:


NORAD ID: 38046
Int'l Code: 2012-001A
Perigee: 506.2 km
Apogee: 508.4 km
Inclination: 97.3 °
Period: 94.6 minutes
Semi major axis: 6878 km
RCS: 5.391 m2 (large)
Launch date: January 9, 2012
Source: People's Republic of China (PRC)
Launch site: Taiyaun Space Center, China (TSC)
Your satellite tracking list
Your tracking list is empty




NASA's NSSDC Master Catalog

Two Line Element Set (TLE):
1 38046U 12001A   23028.44453740  .00010166  00000-0  44952-3 0  9992
2 38046  97.3150  98.4467 0001589  93.8548  33.9661 15.21881567613817
Source of the keplerian elements: AFSPC